Bigfork, MN

1:42 PM CST on February 23, 2017 (GMT -0600)
Bigfork Municipal

Weather History for KFOZ - March, 2014

Change the Weather History Date:

Wednesday, March 26, 2014

  Actual Average (KGPZ) Record (KGPZ)
Temperature  
Mean Temperature 8 °F -  
Max Temperature 30 °F 42 °F 71 °F (2007)
Min Temperature -13 °F 20 °F -13 °F (1965)
Degree Days  
Heating Degree Days 56    
Moisture  
Dew Point 1 °F    
Average Humidity 61    
Maximum Humidity 84    
Minimum Humidity 40    
Precipitation  
Precipitation 0.00 in - - ()
Sea Level Pressure  
Sea Level Pressure 29.85 in    
Wind  
Wind Speed 4 mph (SE)    
Max Wind Speed 15 mph    
Max Gust Speed 22 mph    
Visibility 10 miles    
Events      
Averages and records for this station are not official NWS values.
T = Trace of Precipitation, MM = Missing Value Source: NWS Daily Summary

Daily Weather History Graph

Daily Weather History Graph

Search for Another Location

Airport or City:

Trip Planner

Search our weather history database for the weather conditions in past years. The results will help you decide how hot, cold, wet, or windy it might be!

Date:

Astronomy

Mar. 26, 2014 Rise Set
Actual Time 7:05 AM CDT 7:36 PM CDT
Civil Twilight 6:34 AM CDT 8:07 PM CDT
Nautical Twilight 5:57 AM CDT 8:44 PM CDT
Astronomical Twilight 5:19 AM CDT 9:22 PM CDT
Moon 4:32 AM CDT (3/26) 2:58 PM CDT (3/26)
Length of Visible Light 13h 32m
Length of Day
12h 30m
Waning Crescent, 21% of the Moon is Illuminated
Mar 26
Waning Crescent
Mar 30
New
Apr 7
First Quarter
Apr 15
Full
Apr 22
Last Quarter

Hourly Weather History & Observations

Time (CDT) Temp. Windchill Dew Point Humidity Pressure Visibility Wind Dir Wind Speed Gust Speed Precip Events Conditions
12:13 AM -5.8 °F - -9.4 °F 84% 30.04 in 10.0 mi Calm Calm - N/A   Clear
12:33 AM -7.6 °F - -11.2 °F 84% 30.04 in 10.0 mi Calm Calm - N/A   Clear
12:53 AM -7.6 °F - -11.2 °F 84% 30.04 in 10.0 mi Calm Calm - N/A   Clear
1:13 AM -9.4 °F - -13.0 °F 84% 30.04 in 10.0 mi Calm Calm - N/A   Clear
1:33 AM -9.4 °F - -14.8 °F 77% 30.04 in 10.0 mi Calm Calm - N/A   Clear
1:53 AM -9.4 °F - -14.8 °F 77% 30.03 in 10.0 mi Calm Calm - N/A   Clear
2:13 AM -9.4 °F - -14.8 °F 77% 30.04 in 10.0 mi Calm Calm - N/A   Clear
2:33 AM -11.2 °F - -16.6 °F 77% 30.03 in 10.0 mi Calm Calm - N/A   Clear
2:53 AM -9.4 °F - -14.8 °F 77% 30.02 in 10.0 mi Calm Calm - N/A   Clear
3:13 AM -11.2 °F - -16.6 °F 77% 30.02 in 10.0 mi Calm Calm - N/A   Clear
3:33 AM -11.2 °F - -16.6 °F 77% 30.02 in 10.0 mi Calm Calm - N/A   Clear
3:53 AM -9.4 °F - -16.6 °F 71% 30.01 in 10.0 mi Calm Calm - N/A   Clear
4:13 AM -11.2 °F - -16.6 °F 77% 30.00 in 10.0 mi Calm Calm - N/A   Clear
4:33 AM -11.2 °F - -16.6 °F 77% 30.00 in 10.0 mi Calm Calm - N/A   Clear
4:53 AM -13.0 °F - -18.4 °F 77% 30.00 in 10.0 mi Calm Calm - N/A   Clear
5:13 AM -11.2 °F - -16.6 °F 77% 30.00 in 10.0 mi Calm Calm - N/A   Clear
5:33 AM -11.2 °F - -16.6 °F 77% 29.99 in 10.0 mi Calm Calm - N/A   Clear
5:53 AM -11.2 °F - -18.4 °F 70% 29.98 in 10.0 mi Calm Calm - N/A   Clear
6:13 AM -11.2 °F - -16.6 °F 77% 29.98 in 10.0 mi Calm Calm - N/A   Clear
6:33 AM -11.2 °F - -16.6 °F 77% 29.97 in 10.0 mi Calm Calm - N/A   Clear
6:53 AM -11.2 °F - -16.6 °F 77% 29.97 in 10.0 mi Calm Calm - N/A   Clear
7:13 AM -11.2 °F - -18.4 °F 70% 29.98 in 10.0 mi Calm Calm - N/A   Clear
7:33 AM -9.4 °F - -16.6 °F 71% 29.97 in 10.0 mi Calm Calm - N/A   Clear
7:53 AM -9.4 °F - -14.8 °F 77% 29.97 in 10.0 mi Calm Calm - N/A   Clear
8:13 AM -5.8 °F - -11.2 °F 77% 29.97 in 10.0 mi Calm Calm - N/A   Mostly Cloudy
8:33 AM -0.4 °F - -5.8 °F 78% 29.96 in 10.0 mi Calm Calm - N/A   Mostly Cloudy
8:53 AM 5.0 °F -2.1 °F -2.2 °F 72% 29.95 in 10.0 mi South 3.5 mph - N/A   Scattered Clouds
9:13 AM 8.6 °F 2.0 °F 1.4 °F 73% 29.94 in 10.0 mi South 3.5 mph - N/A   Mostly Cloudy
9:33 AM 14.0 °F 5.1 °F 3.2 °F 62% 29.94 in 10.0 mi South 5.8 mph - N/A   Scattered Clouds
9:53 AM 15.8 °F 5.1 °F 3.2 °F 58% 29.93 in 10.0 mi South 8.1 mph - N/A   Scattered Clouds
10:13 AM 17.6 °F 9.3 °F 5.0 °F 58% 29.93 in 10.0 mi South 5.8 mph - N/A   Clear
10:33 AM 19.4 °F 7.9 °F 6.8 °F 58% 29.92 in 10.0 mi South 10.4 mph - N/A   Clear
10:53 AM 21.2 °F 8.3 °F 6.8 °F 54% 29.91 in 10.0 mi South 13.8 mph - N/A   Scattered Clouds
11:13 AM 23.0 °F 11.7 °F 6.8 °F 50% 29.90 in 10.0 mi South 11.5 mph - N/A   Scattered Clouds
11:33 AM 24.8 °F 16.1 °F 8.6 °F 50% 29.89 in 10.0 mi SSE 8.1 mph - N/A   Clear
11:53 AM 24.8 °F 12.4 °F 8.6 °F 50% 29.87 in 10.0 mi South 15.0 mph - N/A   Clear
12:13 PM 24.8 °F 14.6 °F 8.6 °F 50% 29.86 in 10.0 mi SSE 10.4 mph 19.6 mph N/A   Clear
12:33 PM 24.8 °F 13.4 °F 8.6 °F 50% 29.85 in 10.0 mi South 12.7 mph 21.9 mph N/A   Scattered Clouds
12:53 PM 24.8 °F 14.0 °F 8.6 °F 50% 29.84 in 10.0 mi SSE 11.5 mph 17.3 mph N/A   Mostly Cloudy
1:13 PM 26.6 °F 16.8 °F 8.6 °F 47% 29.83 in 10.0 mi SSE 10.4 mph 16.1 mph N/A   Overcast
1:33 PM 26.6 °F 15.7 °F 8.6 °F 47% 29.81 in 10.0 mi SE 12.7 mph 17.3 mph N/A   Overcast
1:53 PM 26.6 °F 15.2 °F 8.6 °F 47% 29.79 in 10.0 mi SE 13.8 mph 17.3 mph N/A   Overcast
2:13 PM 26.6 °F 16.2 °F 8.6 °F 47% 29.78 in 10.0 mi SE 11.5 mph - N/A   Overcast
2:33 PM 26.6 °F 15.7 °F 8.6 °F 47% 29.77 in 10.0 mi ESE 12.7 mph 18.4 mph N/A   Overcast
2:53 PM 28.4 °F 17.5 °F 8.6 °F 43% 29.75 in 10.0 mi ESE 13.8 mph 18.4 mph N/A   Overcast
3:13 PM 28.4 °F 18.5 °F 8.6 °F 43% 29.72 in 10.0 mi SE 11.5 mph 21.9 mph N/A   Scattered Clouds
3:33 PM 30.2 °F 19.8 °F 10.4 °F 44% 29.71 in 10.0 mi SE 13.8 mph 19.6 mph N/A   Clear
3:53 PM 28.4 °F 17.5 °F 10.4 °F 47% 29.72 in 10.0 mi ESE 13.8 mph 19.6 mph N/A   Clear
4:13 PM 30.2 °F 21.3 °F 10.4 °F 44% 29.71 in 10.0 mi ESE 10.4 mph 19.6 mph N/A   Clear
4:33 PM 30.2 °F 21.3 °F 8.6 °F 40% 29.71 in 10.0 mi SE 10.4 mph - N/A   Clear
4:53 PM 30.2 °F 20.2 °F 10.4 °F 44% 29.70 in 10.0 mi SE 12.7 mph 18.4 mph N/A   Clear
5:13 PM 30.2 °F 20.2 °F 10.4 °F 44% 29.69 in 10.0 mi SE 12.7 mph 19.6 mph N/A   Clear
5:33 PM 30.2 °F 21.3 °F 10.4 °F 44% 29.69 in 10.0 mi ESE 10.4 mph 16.1 mph N/A   Clear
5:53 PM 30.2 °F 22.6 °F 10.4 °F 44% 29.69 in 10.0 mi SE 8.1 mph 17.3 mph N/A   Clear
6:13 PM 30.2 °F 19.8 °F 10.4 °F 44% 29.69 in 10.0 mi ESE 13.8 mph - N/A   Clear
6:33 PM 30.2 °F 22.6 °F 10.4 °F 44% 29.69 in 10.0 mi ESE 8.1 mph - N/A   Clear
6:53 PM 28.4 °F 21.2 °F 12.2 °F 51% 29.69 in 10.0 mi ESE 6.9 mph - N/A   Clear
7:13 PM 28.4 °F 22.2 °F 10.4 °F 47% 29.70 in 10.0 mi ESE 5.8 mph - N/A   Clear
7:33 PM 28.4 °F 23.3 °F 10.4 °F 47% 29.70 in 10.0 mi East 4.6 mph - N/A   Clear
7:53 PM 28.4 °F 22.2 °F 12.2 °F 51% 29.69 in 10.0 mi ESE 5.8 mph - N/A   Clear
8:13 PM 28.4 °F 23.3 °F 12.2 °F 51% 29.69 in 10.0 mi ESE 4.6 mph - N/A   Scattered Clouds
8:33 PM 28.4 °F 23.3 °F 12.2 °F 51% 29.68 in 10.0 mi East 4.6 mph - N/A   Scattered Clouds
8:53 PM 28.4 °F 22.2 °F 12.2 °F 51% 29.68 in 10.0 mi ESE 5.8 mph - N/A   Scattered Clouds
9:13 PM 28.4 °F 22.2 °F 12.2 °F 51% 29.67 in 10.0 mi East 5.8 mph - N/A   Overcast
9:33 PM 28.4 °F 19.1 °F 14.0 °F 55% 29.66 in 10.0 mi East 10.4 mph - N/A   Scattered Clouds
9:53 PM 28.4 °F 20.4 °F 15.8 °F 59% 29.66 in 10.0 mi East 8.1 mph - N/A   Mostly Cloudy
10:13 PM 26.6 °F 18.2 °F 14.0 °F 59% 29.65 in 10.0 mi East 8.1 mph - N/A   Mostly Cloudy
10:33 PM 26.6 °F 18.2 °F 14.0 °F 59% 29.64 in 10.0 mi East 8.1 mph - N/A   Mostly Cloudy
10:53 PM 26.6 °F 19.1 °F 14.0 °F 59% 29.64 in 10.0 mi East 6.9 mph - N/A   Overcast
11:13 PM 26.6 °F 22.6 °F 15.8 °F 64% 29.63 in 10.0 mi East 3.5 mph - N/A   Overcast
11:33 PM 26.6 °F 19.1 °F 14.0 °F 59% 29.63 in 10.0 mi East 6.9 mph - N/A   Overcast
11:53 PM 26.6 °F 20.0 °F 14.0 °F 59% 29.63 in 10.0 mi ENE 5.8 mph - N/A   Overcast